sat.trackr.live / text

‹ back to catalog

STARLINK-31322

NORAD 59168 · 2024-044S

PAYLOAD ACTIVE UNKNOWN

§ Identity

Operator
Country
US
Launch date
2024-03-04
Launch site
AFETR
Launch vehicle
Mass (kg)
RCS (m²)

Purposes: comms

External: N2YO · Heavens-Above · Gunter

§ Orbital elements

Epoch: 2026-05-25T01:44:47.784192Z

Period
94.27 min
Inclination
43.0036°
Eccentricity
0.0001120
Mean motion
15.27582184 rev/d
Perigee alt
482.3 km
Apogee alt
483.8 km
Semi-major
6,861.2 km
B*
2.2573e-5
RAAN
35.9720°
Arg perigee
273.6519°
Mean anomaly
86.4204°
Rev number
12,527

§ Raw data

STARLINK-313221 59168U 24044S   26145.07277528  .00000359  00000+0  22573-4 0  99982 59168  43.0036  35.9720 0001120 273.6519  86.4204 15.27582184125274

JSON: /api/v1/satellites/59168 · /tle

For live sub-satellite position, see the globe view (requires WebGL).

§ Visibility from observer

Set your observer location to see the next 7 days of passes ≥ 10°. The values pass through the URL so the page stays shareable.

No JS? Fill the form by hand. The geolocation button needs JavaScript.